Home   Weather   East Hants   Past weeks

Flag for Canada Past Weather in East Hants, Nova Scotia, Canada — Yesterday and Last 2 Weeks

Now
30 °F

Light snow. Low clouds.


Feels Like: 25 °F
Forecast: 22 / 30 °F
Wind: 5 mph from West

Location: Halifax International Airport

Current Time: Jan 20, 2017 at 4:20:07 am

Latest Report: Jan 20, 2017 at 3:00 am


Visibility: 10 mi

Pressure: 29.88 "Hg

Humidity: 100%

Dew Point: 30 °F

Location of East HantsLocation

Past Weather in East Hants — Graph

°F

East Hants Temperature Yesterday

Maximum temperature yesterday: 32 °F (at 12:00 pm)
Minimum temperature yesterday: 21 °F (at 12:00 am)
Average temperature yesterday: 28 °F

High & Low Weather Summary for the Past Weeks

 TemperatureHumidityPressure
High50 °F (Jan 12, 2:19 pm)100% (Jan 5, 3:00 am)30.81 "Hg (Jan 5, 3:00 am)
Low1 °F (Jan 9, 8:00 am)43% (Jan 13, 8:00 pm)29.33 "Hg (Jan 5, 3:21 am)
Average25 °F84%30.13 "Hg
* Reported Jan 5 3:00 am — Jan 20 3:00 am, East Hants, Weather by CustomWeather, © 2017

Note: Actual official high and low records may vary slightly from our data, if they occured in-between our weather recording intervals... More about our weather records

Advertising

East Hants Weather History for the Previous 24 Hours

Scroll right to see more
 ConditionsComfort  
Time TempWeatherWind HumidityBarometerVisibility
3:00 am
Fri, Jan 20
30 °FLight snow. Low clouds.5 mph100%29.88 "Hg10 mi
2:00 am28 °FLight snow. Ice fog.3 mph100%29.88 "Hg2 mi
1:00 am28 °FLight snow. Ice fog.2 mph100%29.88 "Hg1 mi
12:26 am28 °FLight snow. Ice fog.2 mph100%29.88 "Hg1 mi
12:02 am28 °FLight snow. Ice fog.No wind100%29.88 "Hg1 mi
11:46 pm
Thu, Jan 19
28 °FLight snow. Ice fog.No wind100%29.88 "Hg2 mi
11:18 pm28 °FLight snow. Mostly cloudy.2 mph100%29.90 "Hg8 mi
11:00 pm28 °FLight snow. Mostly cloudy.3 mph100%29.90 "Hg12 mi
10:27 pm28 °FLight snow. Ice fog.5 mph100%29.90 "Hg6 mi
10:00 pm28 °FLight snow. Mostly cloudy.6 mph100%29.90 "Hg12 mi
9:00 pm28 °FLight snow. Mostly cloudy.6 mph100%29.91 "Hg12 mi
8:53 pm28 °FLight snow. Mostly cloudy.6 mph100%29.91 "Hg12 mi
8:00 pm28 °FLight snow. Mostly cloudy.3 mph100%29.92 "Hg10 mi
7:00 pm28 °FLight snow. Mostly cloudy.2 mph100%29.92 "Hg8 mi
6:21 pm28 °FLight snow. Low clouds.3 mph100%29.92 "Hg4 mi
6:00 pm28 °FLight snow. Mostly cloudy.2 mph100%29.92 "Hg2 mi
5:32 pm28 °FLight snow. Mostly cloudy.3 mph100%29.92 "Hg2 mi
5:00 pm30 °FLight snow. Mostly cloudy.5 mph100%29.93 "Hg1 mi
4:36 pm30 °FLight snow. Mostly cloudy.5 mph100%29.92 "Hg2 mi
4:11 pm30 °FLight snow. More clouds than sun.2 mph100%29.92 "Hg2 mi
4:00 pm30 °FLight snow. More clouds than sun.3 mph100%29.92 "Hg3 mi
3:38 pm30 °FLight snow. Low clouds.5 mph100%29.92 "Hg4 mi
3:00 pm30 °FLight snow. More clouds than sun.2 mph93%29.92 "Hg1 mi
2:22 pm32 °FLight snow. Mostly cloudy.3 mph87%29.92 "Hg1 mi
2:03 pm32 °FLight snow. Mostly cloudy.6 mph80%29.92 "Hg2 mi
1:00 pm32 °FLight snow. More clouds than sun.7 mph75%29.94 "Hg15 mi
12:54 pm32 °FLight snow. More clouds than sun.8 mph75%29.94 "Hg15 mi
12:00 pm32 °FOvercast.7 mph75%29.98 "Hg15 mi
11:00 am28 °FOvercast.3 mph80%30.01 "Hg15 mi
10:00 am27 °FOvercast.7 mph86%30.02 "Hg15 mi
9:00 am23 °FMostly cloudy.2 mph93%30.04 "Hg15 mi
8:00 am23 °FOvercast.5 mph93%30.03 "Hg15 mi
7:00 am25 °FOvercast.3 mph86%30.03 "Hg15 mi
6:00 am21 °FOvercast.6 mph93%30.03 "Hg15 mi
5:00 am25 °FPassing clouds.9 mph80%30.02 "Hg15 mi
4:00 am25 °FOvercast.7 mph80%30.05 "Hg15 mi
Weather by CustomWeather, © 2017

See weather overviewHow to use our weather pages